CW8809 Weather Reports


Display with metric or nautical units.
time (UTC)temp
F
wind
direction
speed
MPH
gust
MPH
rain 1hr
in
rain 24hr
in
rain mn
in
humidity
%
barometer
mb
20180922201313 36 90 0.0 0.0 0.00 0.00 0.00 80 1021.2
20180922200312 35 90 0.0 0.0 0.00 0.00 0.00 81 1021.2
20180922195310 35 90 0.0 0.0 0.00 0.00 0.00 80 1021.3
20180922194308 35 45 0.0 0.0 0.00 0.00 0.00 79 1021.3
20180922193307 35 22 0.0 0.0 0.00 0.00 0.00 79 1021.0
20180922192305 36 22 0.0 0.0 0.00 0.00 0.00 78 1021.1
20180922191303 36 112 0.0 0.0 0.00 0.00 0.00 79 1021.1
20180922190302 37 22 0.0 0.0 0.00 0.00 0.00 78 1020.8
20180922185300 37 45 0.0 0.0 0.00 0.00 0.00 77 1020.9
20180922184259 38 90 0.0 0.0 0.00 0.00 0.00 76 1020.9
20180922183257 38 90 0.0 0.0 0.00 0.00 0.00 75 1021.0
20180922181254 39 90 0.0 0.0 0.00 0.00 0.00 75 1020.8
20180922180253 39 67 0.0 0.0 0.00 0.00 0.00 75 1020.8
20180922175251 39 112 0.0 0.0 0.00 0.00 0.00 76 1020.8
20180922174248 38 45 0.0 0.0 0.00 0.00 0.00 74 1020.8
20180922173246 38 157 0.0 0.0 0.00 0.00 0.00 73 1020.9
20180922171127 39 157 0.0 0.0 0.00 0.00 0.00 72 1021.1
20180922170125 39 112 3.0 3.0 0.00 0.00 0.00 71 1021.4
20180922165124 40 337 0.0 0.0 0.00 0.00 0.00 70 1021.4
20180922164122 40 225 0.0 0.0 0.00 0.00 0.00 69 1021.4
20180922163121 40 90 0.0 1.0 0.00 0.00 0.00 69 1021.5
20180922162119 41 45 0.0 0.0 0.00 0.00 0.00 68 1021.5
20180922161117 41 112 0.0 1.0 0.00 0.00 0.00 68 1021.6
20180922160115 41 90 1.0 1.0 0.00 0.00 0.00 67 1021.6
20180922155113 42 108 1.0 3.0 0.00 0.00 0.00 67 1021.7
20180922154112 42 90 0.0 1.0 0.00 0.00 0.00 65 1021.6
20180922152045 44 45 0.0 1.0 0.00 0.00 0.00 62 1022.0
20180922151044 45 45 0.0 3.0 0.00 0.00 0.00 60 1022.1
20180922150041 46 45 4.0 4.0 0.00 0.00 0.00 59 1022.2
20180922145039 46 22 0.0 0.0 0.00 0.00 0.00 58 1022.3
20180922144037 47 0 0.0 2.0 0.00 0.00 0.00 57 1022.7
20180922143035 48 67 0.0 1.0 0.00 0.00 0.00 56 1022.7
20180922142033 49 126 1.0 3.0 0.00 0.00 0.00 53 1022.7
20180922141031 49 315 1.0 2.0 0.00 0.00 0.00 53 1022.6
20180922140030 49 315 4.0 6.0 0.00 0.00 0.00 54 1022.6
20180922135027 49 315 3.0 3.0 0.00 0.00 0.00 53 1022.6
20180922134025 49 292 1.0 3.0 0.00 0.00 0.00 52 1022.6
20180922133023 49 311 2.0 5.0 0.00 0.00 0.00 51 1022.5
20180922132020 49 200 5.0 5.0 0.00 0.00 0.00 51 1022.5
20180922131018 49 202 5.0 6.0 0.00 0.00 0.00 51 1022.4
20180922130016 48 219 4.0 8.0 0.00 0.00 0.00 52 1022.6
20180922125014 48 202 6.0 6.0 0.00 0.00 0.00 53 1022.5
20180922124012 48 270 0.0 1.0 0.00 0.00 0.00 53 1022.5
20180922123010 48 292 3.0 3.0 0.00 0.00 0.00 54 1022.0
20180922122008 48 315 1.0 1.0 0.00 0.00 0.00 56 1021.9
20180922121006 48 315 0.0 3.0 0.00 0.00 0.00 57 1022.2
20180922120006 48 299 3.0 3.0 0.00 0.00 0.00 57 1022.1
20180922115002 48 315 2.0 2.0 0.00 0.00 0.00 57 1021.7
20180922114000 49 315 0.0 1.0 0.00 0.00 0.00 55 1021.7
20180922112958 50 180 1.0 6.0 0.00 0.00 0.00 53 1021.4
20180922111955 51 337 3.0 5.0 0.00 0.00 0.00 52 1021.4
20180922110953 51 303 2.0 8.0 0.00 0.00 0.00 51 1021.3
20180922105951 51 322 7.0 8.0 0.00 0.00 0.00 52 1021.3
20180922104949 51 315 8.0 9.0 0.00 0.00 0.00 53 1021.2
20180922103948 51 292 3.0 7.0 0.00 0.00 0.00 53 1021.2
20180922102945 51 337 2.0 2.0 0.00 0.00 0.00 53 1021.2
20180922101943 51 292 1.0 1.0 0.00 0.00 0.00 52 1021.2
20180922100940 52 270 1.0 5.0 0.00 0.00 0.00 52 1020.9
20180922095939 53 292 1.0 4.0 0.00 0.00 0.00 51 1020.8
20180922094937 53 315 4.0 13.0 0.00 0.00 0.00 50 1020.7
20180922093938 54 289 8.0 9.0 0.00 0.00 0.00 49 1020.7
20180922092936 54 316 6.0 8.0 0.00 0.00 0.00 49 1020.3
20180922091934 54 313 7.0 11.0 0.00 0.00 0.00 49 1019.9
20180922090928 55 264 8.0 11.0 0.00 0.00 0.00 49 1019.9
20180922085925 55 292 6.0 8.0 0.00 0.00 0.00 48 1019.9
20180922084924 55 277 6.0 9.0 0.00 0.00 0.00 49 1019.8
20180922083922 56 300 4.0 12.0 0.00 0.00 0.00 49 1019.8
20180922082920 57 315 12.0 12.0 0.00 0.00 0.00 48 1019.8
20180922081918 57 311 9.0 14.0 0.00 0.00 0.00 49 1019.5
20180922080916 58 315 11.0 18.0 0.00 0.00 0.00 49 1019.5
20180922075914 58 273 5.0 15.0 0.00 0.00 0.00 49 1019.5
20180922074913 59 292 3.0 6.0 0.00 0.00 0.00 48 1019.6
20180922073911 60 293 7.0 10.0 0.00 0.00 0.00 47 1019.3
20180922072909 60 280 7.0 15.0 0.00 0.00 0.00 47 1019.4
20180922071907 60 263 7.0 8.0 0.00 0.00 0.00 47 1019.4
20180922070905 60 254 5.0 10.0 0.00 0.00 0.00 47 1019.5
20180922065903 61 266 4.0 8.0 0.00 0.00 0.00 46 1019.5
20180922064900 61 303 2.0 10.0 0.00 0.00 0.00 46 1019.5
20180922063858 61 296 2.0 10.0 0.00 0.00 0.00 45 1019.2
20180922062856 62 253 10.0 10.0 0.00 0.00 0.00 44 1019.2
20180922061854 62 284 7.0 18.0 0.00 0.00 0.00 42 1019.3
20180922060852 63 247 9.0 9.0 0.00 0.00 0.00 42 1019.3
20180922055850 63 290 10.0 16.0 0.00 0.00 0.00 42 1019.4
20180922054848 63 307 7.0 21.0 0.00 0.00 0.00 42 1019.1
20180922053846 64 250 7.0 21.0 0.00 0.00 0.00 43 1019.2
20180922052844 65 243 6.0 18.0 0.00 0.00 0.00 41 1019.2
20180922051841 66 225 7.0 12.0 0.00 0.00 0.00 39 1019.6
20180922050839 66 304 7.0 14.0 0.00 0.00 0.00 38 1019.7
20180922045838 66 315 7.0 25.0 0.00 0.00 0.00 39 1019.3
20180922044836 66 298 12.0 31.0 0.00 0.00 0.00 38 1019.7
20180922043834 65 242 7.0 28.0 0.00 0.00 0.00 39 1019.7
20180922042831 66 271 12.0 29.0 0.00 0.00 0.00 37 1019.7
20180922041830 66 301 16.0 30.0 0.00 0.00 0.00 36 1019.7
20180922040826 67 0 5.0 29.0 0.00 0.00 0.00 35 1019.8
20180922035825 67 291 15.0 26.0 0.00 0.00 0.00 34 1020.1
20180922034823 66 158 4.0 25.0 0.00 0.00 0.00 35 1020.1
20180922033821 66 303 12.0 27.0 0.00 0.00 0.00 35 1020.4
20180922032818 65 315 3.0 23.0 0.00 0.00 0.00 36 1020.4
20180922031816 66 314 16.0 23.0 0.00 0.00 0.00 34 1020.5
20180922030814 66 259 8.0 30.0 0.00 0.00 0.00 36 1020.5
20180922025812 66 313 14.0 21.0 0.00 0.00 0.00 34 1020.9
20180922024810 67 317 6.0 35.0 0.00 0.00 0.00 34 1021.0
20180922023808 67 310 8.0 27.0 0.00 0.00 0.00 34 1021.3
20180922022806 67 341 14.0 28.0 0.00 0.00 0.00 33 1021.3
20180922021804 66 284 10.0 32.0 0.00 0.00 0.00 39 1021.3
20180922020803 65 342 14.0 25.0 0.00 0.00 0.00 41 1021.6
20180922015800 64 313 8.0 24.0 0.00 0.00 0.00 44 1021.9
20180922014759 64 327 7.0 19.0 0.00 0.00 0.00 43 1021.9
20180922013757 63 225 5.0 19.0 0.00 0.00 0.00 47 1022.2
20180922012755 62 308 6.0 17.0 0.00 0.00 0.00 47 1022.5
20180922011753 61 328 11.0 21.0 0.00 0.00 0.00 47 1022.5
20180922010750 61 247 4.0 11.0 0.00 0.00 0.00 50 1022.9
20180922005748 60 310 4.0 17.0 0.00 0.00 0.00 49 1022.8
20180922004746 59 270 5.0 15.0 0.00 0.00 0.00 51 1023.1
20180922002538 56 281 9.0 16.0 0.00 0.00 0.00 56 1023.4
20180922001536 54 337 8.0 18.0 0.00 0.00 0.00 58 1023.4
20180922000534 53 350 10.0 13.0 0.00 0.00 0.00 61 1023.3
20180921235532 52 330 5.0 8.0 0.00 0.00 0.00 65 1023.5
20180921234530 51 270 4.0 6.0 0.00 0.00 0.00 67 1023.7
20180921233528 50 315 8.0 8.0 0.00 0.00 0.00 67 1023.4
20180921232526 49 331 4.0 6.0 0.00 0.00 0.00 68 1023.7
20180921231524 48 292 4.0 4.0 0.00 0.00 0.00 69 1023.3
20180921230522 48 22 0.0 3.0 0.00 0.00 0.00 72 1023.7
20180921225519 48 157 1.0 3.0 0.00 0.00 0.00 72 1023.6
20180921224517 47 269 3.0 3.0 0.00 0.00 0.00 74 1023.6
20180921223515 46 180 0.0 1.0 0.00 0.00 0.00 75 1023.6
20180921222513 45 202 0.0 0.0 0.00 0.00 0.00 75 1023.2
20180921221511 45 45 0.0 0.0 0.00 0.00 0.00 74 1023.5
20180921220509 44 22 0.0 5.0 0.00 0.00 0.00 77 1023.1
20180921215508 42 67 0.0 2.0 0.00 0.00 0.00 80 1023.0
20180921214506 42 112 2.0 3.0 0.00 0.00 0.00 82 1023.0
20180921213503 40 45 0.0 0.0 0.00 0.00 0.00 84 1022.9
20180921212502 39 135 0.0 0.0 0.00 0.00 0.00 85 1022.9
20180921211459 39 135 0.0 0.0 0.00 0.00 0.00 86 1022.9
20180921210457 38 90 0.0 0.0 0.00 0.00 0.00 86 1022.8
20180921205456 37 45 0.0 0.0 0.00 0.00 0.00 86 1022.8
20180921204454 36 45 0.0 0.0 0.00 0.00 0.00 86 1022.7
20180921203452 35 45 0.0 0.0 0.00 0.00 0.00 86 1022.7
20180921202450 34 45 0.0 0.0 0.00 0.00 0.00 86 1022.3